Regional Weather Roundup
Issued by NWS

Home | Current Version | Previous Version | Text Only | Print | Product List | Glossary Off
Versions: 1 2 3 4 5 6 7 8 9 10 11 12 13 14 15 16 17 18 19 20 21 22 23 24 25 26 27 28 29 30 31 32 33 34 35 36 37 38 39 40 41 42 43 44 45 46 47 48 49 50

000
ASUS43 KLMK 042002
RWRKY
KENTUCKY REGIONAL WEATHER ROUNDUP
NATIONAL WEATHER SERVICE LOUISVILLE KY
400 PM EDT MON MAY 04 2015

NOTE "FAIR" INDICATES FEW OR NO CLOUDS BELOW 12,000 FEET
WITH NO SIGNIFICANT WEATHER AND/OR OBSTRUCTIONS TO VISIBILITY.

KYZ001>023-026-027-061>063-070>075-042100-
WESTERN AND SOUTH CENTRAL KENTUCKY

CITY           SKY/WX    TMP DP  RH WIND       PRES   REMARKS
PADUCAH        MOSUNNY   83  55  38 SW13G21   30.16F
HENDERSON      PTSUNNY   84  55  37 S17       30.14F
OWENSBORO      MOSUNNY   84  60  44 SW14      30.16F
HOPKINSVILLE   PTSUNNY   81  59  47 SW9       30.19F
BOWLING GREEN  PTSUNNY   83  56  39 SW12G17   30.20F
GLASGOW        NOT AVBL
$$

KYZ024-025-028>034-038-045-046-053-042100-
NORTH CENTRAL KENTUCKY

CITY           SKY/WX    TMP DP  RH WIND       PRES   REMARKS
LOUISVILLE/SDF PTSUNNY   83  55  38 SW14G21   30.16F
LOUISVILLE/LOU MOSUNNY   82  56  40 W10       30.16F
FORT KNOX      MOSUNNY   83  55  38 SW10G26   30.16F
$$

KYZ035>037-039>044-047>052-055>060-089>105-042100-
NORTHEAST KENTUCKY

CITY           SKY/WX    TMP DP  RH WIND       PRES   REMARKS
LEXINGTON      MOSUNNY   80  54  40 SW13      30.20F
COVINGTON      CLOUDY    78  55  44 SW5       30.17F
FRANKFORT      PTSUNNY   79  55  43 S9        30.17F
$$

KYZ054-064>069-076>088-106>120-042100-
SOUTHEAST KENTUCKY

CITY           SKY/WX    TMP DP  RH WIND       PRES   REMARKS
JACKSON        MOSUNNY   80  47  31 VRB5      30.23F
LONDON         SUNNY     82  42  24 SW9       30.23F
SOMERSET       NOT AVBL
MIDDLESBORO    SUNNY     80  52  37 SW3       30.24F
MONTICELLO     CLEAR     82  50  32 SW9       30.26F
$$



USA.gov is the U.S. government's official web portal to all federal, state and local government web resources and services.